Weather reports worldwide

Advertisment
St. James's Park, United Kingdom (3770): temperature & dewpoint: 13.01.2019 11:00:00 - 19.01.2019 11:00:00 (GMT)St. James's Park, United Kingdom (3770): temperature -20cm & temperature -100cm: 13.01.2019 11:00:00 - 19.01.2019 11:00:00 (GMT)St. James's Park, United Kingdom (3770): precipitation: 13.01.2019 11:00:00 - 19.01.2019 11:00:00 (GMT)
Date & Time tt [°C] td [°C] tt -20cm [°C] tt -100cm [°C] rr [mm]
19.01.2019 11:00:00 4,3 1,1 - - 0,0
19.01.2019 10:00:00 4,0 0,8 - - 0,0
19.01.2019 09:00:00 3,9 0,2 5,9 8,7 0,0
19.01.2019 08:00:00 3,9 -0,1 - - 0,0
19.01.2019 07:00:00 4,0 -0,1 - - 0,0
19.01.2019 06:00:00 4,0 0,1 - - 0,0
19.01.2019 05:00:00 3,9 -0,1 - - 0,0
19.01.2019 04:00:00 3,7 -0,3 - - 0,0
19.01.2019 03:00:00 3,4 -0,8 - - 0,0
19.01.2019 02:00:00 3,4 -0,7 - - 0,0
19.01.2019 01:00:00 3,1 -0,9 - - 0,0
19.01.2019 00:00:00 3,1 -1,1 - - 0,0
18.01.2019 23:00:00 3,5 -0,9 - - 0,0
18.01.2019 22:00:00 3,7 -1,0 - - 0,0
18.01.2019 21:00:00 4,0 -1,0 - - 0,0
18.01.2019 20:00:00 4,2 -0,9 - - 0,0
18.01.2019 19:00:00 3,9 -1,0 - - 0,0
18.01.2019 18:00:00 4,7 -0,7 - - 0,0
18.01.2019 17:00:00 5,4 -1,0 - - 0,0
18.01.2019 16:00:00 6,1 -0,7 - - 0,0
18.01.2019 15:00:00 6,3 -1,0 - - 0,0
18.01.2019 14:00:00 7,0 -1,2 - - 0,0
18.01.2019 13:00:00 6,7 -0,2 - - 0,0
18.01.2019 12:00:00 5,8 0,2 - - 0,0
18.01.2019 11:00:00 4,8 -0,9 - - 0,0
18.01.2019 10:00:00 2,4 -2,4 - - 0,0
18.01.2019 09:00:00 1,5 -2,8 6,5 8,7 0,0
18.01.2019 08:00:00 0,1 -2,3 - - 0,0
18.01.2019 07:00:00 -0,5 -2,7 - - 0,0
18.01.2019 06:00:00 0,2 -2,8 - - 0,0
18.01.2019 05:00:00 0,3 -2,2 - - 0,0
18.01.2019 04:00:00 0,1 -2,8 - - 0,0
18.01.2019 03:00:00 0,5 -2,7 - - 0,0
18.01.2019 02:00:00 0,7 -2,8 - - 0,0
18.01.2019 01:00:00 1,3 -2,7 - - 0,0
18.01.2019 00:00:00 1,8 -2,9 - - 0,0
17.01.2019 23:00:00 2,4 -3,0 - - 0,0
17.01.2019 22:00:00 2,8 -3,1 - - 0,0
17.01.2019 21:00:00 1,3 -3,2 - - 0,0
17.01.2019 20:00:00 2,8 -3,5 - - 0,0
17.01.2019 19:00:00 3,7 -3,4 - - 0,0
17.01.2019 18:00:00 3,4 -3,1 - - 0,0
17.01.2019 17:00:00 4,1 -3,4 - - 0,0
17.01.2019 16:00:00 4,9 -3,7 - - 0,0
17.01.2019 15:00:00 5,1 -3,9 - - 0,0
17.01.2019 14:00:00 5,3 -3,8 - - 0,0
17.01.2019 13:00:00 4,6 -3,2 - - 0,0
17.01.2019 12:00:00 4,6 -2,6 - - 0,0
17.01.2019 11:00:00 4,3 -2,5 - - 0,0
17.01.2019 10:00:00 2,8 -1,4 - - 0,0
17.01.2019 09:00:00 3,0 -0,6 7,2 8,7 0,2
17.01.2019 08:00:00 4,6 2,1 - - 0,0
17.01.2019 07:00:00 4,2 2,3 - - 0,0
17.01.2019 06:00:00 4,2 2,1 - - 0,0
17.01.2019 05:00:00 4,9 3,0 - - 0,0
17.01.2019 04:00:00 5,3 3,5 - - 0,2
17.01.2019 03:00:00 4,9 3,8 - - 0,2
17.01.2019 02:00:00 4,9 3,7 - - 0,0
17.01.2019 01:00:00 4,4 3,6 - - 0,0
17.01.2019 00:00:00 4,2 3,4 - - 0,0
16.01.2019 23:00:00 4,2 3,3 - - 0,0
16.01.2019 22:00:00 4,3 3,2 - - 0,0
16.01.2019 21:00:00 5,2 4,0 - - 0,0
16.01.2019 20:00:00 5,6 4,0 - - 0,0
16.01.2019 19:00:00 5,8 4,2 - - 0,0
16.01.2019 18:00:00 5,9 5,0 - - 0,4
16.01.2019 17:00:00 6,3 4,8 - - 1,2
16.01.2019 16:00:00 8,4 6,6 - - 1,0
16.01.2019 15:00:00 9,4 7,9 - - 0,0
16.01.2019 14:00:00 8,9 7,7 - - 0,2
16.01.2019 13:00:00 9,2 7,4 - - 0,0
16.01.2019 12:00:00 9,4 7,2 - - 0,0
16.01.2019 11:00:00 9,2 7,1 - - 0,0
16.01.2019 10:00:00 9,2 7,2 - - 0,0
16.01.2019 09:00:00 8,7 7,1 7,4 8,7 0,0
16.01.2019 08:00:00 8,6 7,1 - - 0,0
16.01.2019 07:00:00 8,8 6,7 - - 0,0
16.01.2019 06:00:00 8,6 6,9 - - 0,0
16.01.2019 05:00:00 8,8 6,7 - - 0,0
16.01.2019 04:00:00 8,9 6,4 - - 0,0
16.01.2019 03:00:00 8,7 6,9 - - 0,0
16.01.2019 02:00:00 8,8 6,3 - - 0,0
16.01.2019 01:00:00 8,8 6,1 - - 0,0
16.01.2019 00:00:00 8,5 5,7 - - 0,0
15.01.2019 23:00:00 8,7 5,2 - - 0,0
15.01.2019 22:00:00 8,8 4,8 - - 0,0
15.01.2019 21:00:00 9,1 4,6 - - 0,0
15.01.2019 20:00:00 9,2 5,0 - - 0,0
15.01.2019 19:00:00 9,3 5,2 - - 0,0
15.01.2019 18:00:00 9,2 5,6 - - 0,0
15.01.2019 17:00:00 8,9 6,1 - - 0,0
15.01.2019 16:00:00 8,9 6,4 - - 0,0
15.01.2019 15:00:00 9,0 6,1 - - 0,0
15.01.2019 14:00:00 9,1 5,9 - - 0,0
15.01.2019 13:00:00 9,4 5,7 - - 0,0
15.01.2019 12:00:00 8,4 5,3 - - 0,0
15.01.2019 11:00:00 8,0 5,0 - - 0,0
15.01.2019 10:00:00 7,3 4,1 - - 0,0
15.01.2019 09:00:00 6,2 3,4 7,2 8,9 0,0
15.01.2019 08:00:00 5,3 2,8 - - 0,0
15.01.2019 07:00:00 4,8 2,4 - - 0,0
15.01.2019 06:00:00 4,1 1,8 - - 0,0
15.01.2019 05:00:00 4,1 1,5 - - 0,0
15.01.2019 04:00:00 3,3 1,1 - - 0,0
15.01.2019 03:00:00 3,4 1,2 - - 0,0
15.01.2019 02:00:00 3,6 0,9 - - 0,0
15.01.2019 01:00:00 5,1 1,5 - - 0,0
15.01.2019 00:00:00 5,5 1,5 - - 0,0
14.01.2019 23:00:00 6,0 1,6 - - 0,0
14.01.2019 22:00:00 6,8 1,9 - - 0,0
14.01.2019 21:00:00 7,3 1,8 - - 0,0
14.01.2019 20:00:00 8,2 2,9 - - 0,0
14.01.2019 19:00:00 8,0 3,2 - - 0,0
14.01.2019 18:00:00 8,6 3,5 - - 0,0
14.01.2019 17:00:00 8,7 3,2 - - 0,0
14.01.2019 16:00:00 9,2 3,4 - - 0,0
14.01.2019 15:00:00 9,4 3,3 - - 0,0
14.01.2019 14:00:00 9,5 3,5 - - 0,0
14.01.2019 13:00:00 9,2 4,1 - - 0,0
14.01.2019 12:00:00 9,1 3,4 - - 0,0
14.01.2019 11:00:00 9,1 3,6 - - 0,0
14.01.2019 10:00:00 8,5 3,6 - - 0,0
14.01.2019 09:00:00 7,1 3,2 7,7 8,7 0,0
14.01.2019 08:00:00 7,9 2,9 - - 0,0
14.01.2019 07:00:00 7,9 2,6 - - 0,0
14.01.2019 06:00:00 8,0 2,6 - - 0,0
14.01.2019 05:00:00 8,3 2,6 - - 0,0
14.01.2019 04:00:00 8,5 2,4 - - 0,0
14.01.2019 03:00:00 8,9 2,6 - - 0,0
14.01.2019 02:00:00 8,5 2,7 - - 0,0
14.01.2019 01:00:00 9,4 2,2 - - 0,0
14.01.2019 00:00:00 9,7 1,9 - - 0,0
13.01.2019 23:00:00 9,7 2,7 - - 0,0
13.01.2019 22:00:00 9,8 1,8 - - 0,0
13.01.2019 21:00:00 10,9 2,1 - - 0,0
13.01.2019 20:00:00 12,0 4,0 - - 0,0
13.01.2019 19:00:00 11,4 6,7 - - 0,0
13.01.2019 18:00:00 10,7 7,0 - - 0,0
13.01.2019 17:00:00 11,0 7,6 - - 0,0
13.01.2019 16:00:00 11,2 7,7 - - 0,0
13.01.2019 15:00:00 11,4 7,6 - - 0,0
13.01.2019 14:00:00 11,9 7,7 - - 0,0
13.01.2019 13:00:00 11,6 7,3 - - 0,0
13.01.2019 12:00:00 11,4 6,5 - - 0,0
13.01.2019 11:00:00 10,4 6,1 - - 0,0

tt = temperature
td = dewpoint
tt -20cm = temperature -20cm
tt -100cm = temperature -100cm
rr = precipitation

Next stations